Flag for Germany Weather past 2 weeks in Rottenburg am Neckar, Baden-Württemberg, Germany

Now
36 °F

Overcast.


Feels Like: 32 °F
Forecast: 28 / 45 °F
Wind: 5 mph from West

Location: Stuttgart-Echterdingen

Current Time: Mar 5, 2015 at 6:18:00 AM

Latest Report: Mar 5, 2015 at 5:00 AM


Visibility: 38 mi

Pressure: 30.55 "Hg

Humidity: 76%

Dew point: 29 °F

Location of Rottenburg am NeckarLocation

Historic Weather in Rottenburg am Neckar — Graph

°F

Rottenburg am Neckar temperature yesterday

Maximum temperature yesterday: 45 °F (at 1:00 PM)
Minimum temperature yesterday: 35 °F (at 11:00 PM)
Average temperature yesterday: 39 °F

Past Weeks' High & Low Weather Summary

 TemperatureHumidityPressure
High55 °F (Feb 20, 3:00 PM)97% (Feb 20, 5:00 AM)30.78 "Hg (Feb 20, 5:00 AM)
Low24 °F (Feb 20, 5:00 AM)38% (Feb 20, 4:00 PM)29.55 "Hg (Feb 23, 5:00 PM)
Average38 °F76%30.05 "Hg
* Reported Feb 18 6:00 AM — Mar 5 5:00 AM, Rottenburg am Neckar, Weather by CustomWeather, © 2015

Note: Actual official high and low records may vary slightly from our data, if they occured in-between our weather recording intervals... More about our weather records

Advertising

Rottenburg am Neckar weather history for previous 24 hours

 ConditionsComfort  
Time TempWeatherWind HumidityBarometerVisibility
5:00 AM
Thu, Mar 5
36 °FOvercast.5 mph76%30.55 "Hg37 mi
3:00 AM36 °FOvercast.6 mph75%30.52 "Hg37 mi
2:00 AM36 °FPassing clouds.2 mph77%30.52 "Hg37 mi
1:00 AM34 °FPassing clouds.3 mph78%30.52 "Hg37 mi
12:00 AM35 °FPassing clouds.3 mph74%30.51 "Hg37 mi
11:00 PM
Wed, Mar 4
35 °FPassing clouds.3 mph76%30.49 "Hg37 mi
10:00 PM36 °FPassing clouds.5 mph72%30.47 "Hg37 mi
9:00 PM36 °FPassing clouds.3 mph68%30.45 "Hg31 mi
8:00 PM38 °FOvercast.3 mph65%30.42 "Hg31 mi
7:00 PM37 °FPassing clouds.3 mph64%30.41 "Hg31 mi
6:00 PM41 °FPartly sunny.6 mph53%30.38 "Hg37 mi
5:00 PM42 °FOvercast.7 mph50%30.36 "Hg37 mi
4:00 PM43 °FOvercast.9 mph46%30.34 "Hg43 mi
3:00 PM44 °FOvercast.6 mph41%30.32 "Hg43 mi
2:00 PM44 °FPartly sunny.7 mph38%30.33 "Hg43 mi
1:00 PM45 °FPartly sunny.6 mph47%30.34 "Hg43 mi
12:00 PM42 °FPartly sunny.6 mph54%30.34 "Hg40 mi
11:00 AM42 °FOvercast.5 mph59%30.34 "Hg40 mi
9:00 AM38 °FOvercast.2 mph76%30.34 "Hg34 mi
8:00 AM35 °FOvercast.2 mph81%30.33 "Hg37 mi
7:00 AM36 °FOvercast.7 mph75%30.30 "Hg37 mi
6:00 AM37 °FOvercast.6 mph77%30.29 "Hg37 mi
Weather by CustomWeather, © 2015

See weather overviewHow to use our weather pages